loading
|

STARLINK-11254, 60731

Orbit data source: Space-Track

STARLINK-11254, 60731 is a payload satellite owned by SpaceX/Seattle (US) in LEO that was launched on Wed, 28 Aug 2024 UTC via an FALCON 9 launch vehicle from the Air Force Eastern Test Range (AFETR). Payloads include a variety of satellites, spacecraft, and rockets equipped with specific instruments for various scientific and technological missions. These include communications satellites like Starlink; space stations such as the ISS; scientific satellites like the Hubble; Earth observation satellites from companies like Planet Labs, Umbra, and HawkEye 360; GPS; miniature CubeSats for education and research; and military/defense satellites.

Loading next visibility...
Loading greatness...
STARLINK-11254 details
Identifier
60731, 2024-152M
Orbit
LEO
Last TLE update10 hours ago
Origin
Flag of USSpaceX/Seattle (US)
ManufacturerSpaceX/Seattle
Mission statusOperational
MissionUnknown
Bus & MotorSTARLINK V2M, Unknown motor
Mass750 kg wet, ~700 kg dry
Launch date (UTC)
2024-08-28 (3 weeks ago)
Launch vehicle
FALCON 9
Launch site
Air Force Eastern Test Range (AFETR)
Object type
Payload
Rocket body
Debris
Radar Cross SectionLarge (>1 m²)

Expand to show TLE details & history

TLE from 10 hours ago
0 STARLINK-11254
1 60731U 24152M   24258.91667824 -.01005558  00000-0 -58068-2 0  9990
2 60731  53.1480 261.9481 0000671 104.0655 198.1034 15.80549161  3915
Epoch: 2024-09-14T22:00Z
Definitive object data (Epoch: 2024-09-14T22:00:00.999Z)
Latitude-42.83977°
Longitude-106.14199°
Altitude343.64 km
Speed7.702 km/s
True Right ascension14h 32m 55s
True Declination-42° 39' 28"
Sunlit
Object was in daylight at TLE epoch
Predictive object data (real-time)
Latitude48.36086°
Longitude58.56689°
Altitude336.379 km
Speed7.713 km/s
Apparent Right ascension08h 12m 13s
Apparent Declination34° 01' 48"
Sunlit
Object is in full shadow
Predictive observer data (real-time)
Local Sidereal Time00:27:53
Azimuth48.307° ENE
Elevation4.567°
Doppler factor1
Orbital elements
Apogee329.601 km
Perigee328.7 km
Semi-major axis6,707.287 km
Eccentricity0.0000671
Inclination53.148°
RAAN261.9481°
Arg. of periapsis104.0655°
True anomaly198.10101°
Mean anomaly198.1034°
Eccentric anomaly198.10221°
Mean motion3.95114 °/min
BSTAR-0.0058068
Period91.11 mins
No data available

STARLINK-11254 Visibility forecast

Observer location: 39.9160978°, -105.1181434

STARLINK-11254 is not visible in the next 10 days
Span
Click to sort rows by Start time (UTC) header in descending order
Start Az.
Max El. time (UTC)
Max El. Az.
Max El.
End time (UTC)
End Az.